This demonstration page uses our WeatherBlox Daily Observations layout. Learn more.

Left ArrowRight Arrow

Hourly Observations for March 23, 2015

Temp ( °F °C ) Dew Point ( °F °C ) Humidity (%) Winds ( mph kmh ) Pressure ( in mb ) Visibility ( mi km ) Precip ( " mm )
12:51 am 00:51 Clear 52 11.1 28 -2.2 40 40 SE 5 7 30.01 1016 10 16 0.00 0.00
1:51 am 01:51 Clear 50 10 29 -1.7 44 44 SSE 3 6 30.00 1016 10 16 0.00 0.00
2:51 am 02:51 Clear 51 10.6 29 -1.7 43 43 SE 5 7 29.99 1016 10 16 0.00 0.00
3:51 am 03:51 Clear 50 10 30 -1.1 46 46 ESE 3 6 29.98 1015 10 16 0.00 0.00
4:51 am 04:51 Clear 50 10 30 -1.1 46 46 Calm 29.99 1016 10 16 0.00 0.00
5:51 am 05:51 Clear 46 7.8 32 0 58 58 WSW 5 7 30.02 1017 10 16 0.00 0.00
6:51 am 06:51 Sunny 46 7.8 33 0.6 61 61 N 6 9 30.04 1017 10 16 0.00 0.00
7:51 am 07:51 Sunny 55 12.8 33 0.6 44 44 Calm 30.05 1018 10 16 0.00 0.00
8:51 am 08:51 Sunny 60 15.6 34 1.1 38 38 SE 3 6 30.05 1018 10 16 0.00 0.00
9:51 am 09:51 Sunny 68 20 30 -1.1 24 24 Calm 30.03 1017 10 16 0.00 0.00
10:51 am 10:51 Sunny 72 22.2 30 -1.1 21 21 Calm 30.01 1016 10 16 0.00 0.00
11:51 am 11:51 Sunny 74 23.3 29 -1.7 19 19 VRB 3 6 30.00 1016 10 16 0.00 0.00
12:51 pm 12:51 Sunny 77 25 30 -1.1 18 18 W 10 17 29.96 1015 10 16 0.00 0.00
1:51 pm 13:51 Sunny 80 26.7 27 -2.8 14 14 WNW 16 26 29.93 1014 10 16 0.00 0.00
2:51 pm 14:51 Sunny 80 26.7 22 -5.6 11 11 Calm 29.90 1013 10 16 0.00 0.00
3:51 pm 15:51 Sunny 82 27.8 20 -6.7 10 10 WNW 18 30 29.88 1012 10 16 0.00 0.00
4:51 pm 16:51 Sunny 81 27.2 20 -6.7 10 10 WNW 22 35 29.86 1011 10 16 0.00 0.00
5:51 pm 17:51 Sunny 77 25 17 -8.3 10 10 WNW 20 31 29.88 1012 10 16 0.00 0.00
6:51 pm 18:51 Clear 73 22.8 18 -7.8 12 12 WNW 14 22 29.89 1012 10 16 0.00 0.00
7:51 pm 19:51 Clear 66 18.9 21 -6.1 18 18 NNW 9 15 29.90 1013 10 16 0.00 0.00
8:51 pm 20:51 Clear 64 17.8 22 -5.6 20 20 NNW 8 13 29.92 1013 10 16 0.00 0.00
9:51 pm 21:51 Clear 67 19.4 22 -5.6 18 18 N 10 17 29.92 1013 10 16 0.00 0.00
10:51 pm 22:51 Clear 59 15 23 -5 25 25 WNW 8 13 29.93 1014 10 16 0.00 0.00
11:51 pm 23:51 Clear 55 12.8 24 -4.4 30 30 NNW 7 11 29.93 1014 10 16 0.00 0.00

Powered by AerisWeather